Time,TemperatureF,DewpointF,PressureIn,WindDirection,WindDirectionDegrees,WindSpeedMPH,WindSpeedGustMPH,Humidity,HourlyPrecipIn,Conditions,Clouds,dailyrainin,SoftwareType,DateUTC
2013-09-02 00:07:00,72.6,72.0,29.85,SSE,147,0.0,5.0,97,0.00,,,0.22,weatherlink.com 1.10,2013-09-02 04:07:00,
2013-09-02 00:22:00,72.6,72.0,29.85,South,179,0.0,4.0,97,0.00,,,0.22,weatherlink.com 1.10,2013-09-02 04:22:00,
2013-09-02 00:37:00,72.5,72.0,29.85,SE,125,2.0,6.0,97,0.00,,,0.00,weatherlink.com 1.10,2013-09-02 04:37:00,
2013-09-02 00:52:00,72.4,72.0,29.85,SSW,210,0.0,4.0,97,0.00,,,0.00,weatherlink.com 1.10,2013-09-02 04:52:00,
2013-09-02 01:07:00,72.3,71.0,29.85,SW,225,0.0,1.0,97,0.00,,,0.00,weatherlink.com 1.10,2013-09-02 05:07:00,
2013-09-02 01:22:00,72.1,71.0,29.84,SSW,200,1.0,4.0,97,0.00,,,0.00,weatherlink.com 1.10,2013-09-02 05:22:00,
2013-09-02 01:37:00,72.0,71.0,29.84,SW,219,1.0,6.0,97,0.00,,,0.00,weatherlink.com 1.10,2013-09-02 05:37:00,
2013-09-02 01:52:00,72.0,71.0,29.83,SW,219,1.0,5.0,97,0.00,,,0.00,weatherlink.com 1.10,2013-09-02 05:52:00,
2013-09-02 02:07:00,71.8,71.0,29.82,SSW,205,0.0,6.0,97,0.00,,,0.00,weatherlink.com 1.10,2013-09-02 06:07:00,
2013-09-02 02:22:00,71.6,71.0,29.82,SW,219,0.0,5.0,97,0.00,,,0.00,weatherlink.com 1.10,2013-09-02 06:22:00,
2013-09-02 02:37:00,71.7,71.0,29.82,WSW,243,2.0,4.0,98,0.00,,,0.00,weatherlink.com 1.10,2013-09-02 06:37:00,
2013-09-02 02:52:00,71.8,71.0,29.82,SW,236,0.0,6.0,98,0.00,,,0.00,weatherlink.com 1.10,2013-09-02 06:52:00,
2013-09-02 03:07:00,71.9,71.0,29.82,SW,215,0.0,3.0,98,0.00,,,0.00,weatherlink.com 1.10,2013-09-02 07:07:00,
2013-09-02 03:22:00,72.0,71.0,29.82,SSW,207,3.0,4.0,98,0.00,,,0.00,weatherlink.com 1.10,2013-09-02 07:22:00,
2013-09-02 03:37:00,72.0,71.0,29.82,SW,236,2.0,3.0,98,0.00,,,0.00,weatherlink.com 1.10,2013-09-02 07:37:00,
2013-09-02 03:52:00,71.9,71.0,29.82,SW,231,0.0,1.0,98,0.00,,,0.00,weatherlink.com 1.10,2013-09-02 07:52:00,
2013-09-02 04:07:00,71.7,71.0,29.81,South,189,0.0,4.0,98,0.00,,,0.00,weatherlink.com 1.10,2013-09-02 08:07:00,
2013-09-02 04:22:00,71.7,71.0,29.81,SSW,207,0.0,3.0,98,0.00,,,0.00,weatherlink.com 1.10,2013-09-02 08:22:00,
2013-09-02 04:37:00,71.6,71.0,29.81,WSW,255,0.0,4.0,98,0.00,,,0.00,weatherlink.com 1.10,2013-09-02 08:37:00,
2013-09-02 04:52:00,71.5,71.0,29.81,SSW,203,0.0,3.0,98,0.00,,,0.00,weatherlink.com 1.10,2013-09-02 08:52:00,
2013-09-02 05:07:00,71.4,71.0,29.81,SSW,211,0.0,2.0,98,0.00,,,0.00,weatherlink.com 1.10,2013-09-02 09:07:00,
2013-09-02 05:22:00,71.3,71.0,29.81,SE,136,0.0,2.0,98,0.00,,,0.00,weatherlink.com 1.10,2013-09-02 09:22:00,
2013-09-02 05:37:00,71.2,71.0,29.82,South,179,2.0,3.0,98,0.00,,,0.00,weatherlink.com 1.10,2013-09-02 09:37:00,
2013-09-02 05:52:00,71.0,70.0,29.82,SE,138,0.0,0.0,98,0.00,,,0.00,weatherlink.com 1.10,2013-09-02 09:52:00,
2013-09-02 06:07:00,71.0,70.0,29.83,South,187,0.0,1.0,98,0.00,,,0.00,weatherlink.com 1.10,2013-09-02 10:07:00,
2013-09-02 06:22:00,70.9,70.0,29.82,South,187,0.0,0.0,98,0.00,,,0.00,weatherlink.com 1.10,2013-09-02 10:22:00,
2013-09-02 06:38:00,71.0,70.0,29.82,South,181,0.0,1.0,98,0.00,,,0.00,weatherlink.com 1.10,2013-09-02 10:38:00,
2013-09-02 06:53:00,71.0,70.0,29.82,South,184,0.0,1.0,98,0.00,,,0.00,weatherlink.com 1.10,2013-09-02 10:53:00,
2013-09-02 07:08:00,70.8,70.0,29.83,ESE,117,0.0,1.0,98,0.01,,,0.01,weatherlink.com 1.10,2013-09-02 11:08:00,
2013-09-02 07:23:00,70.9,70.0,29.82,ESE,117,0.0,1.0,98,0.05,,,0.05,weatherlink.com 1.10,2013-09-02 11:23:00,
2013-09-02 07:38:00,70.9,70.0,29.82,East,94,0.0,3.0,98,0.07,,,0.07,weatherlink.com 1.10,2013-09-02 11:38:00,
2013-09-02 07:53:00,70.9,70.0,29.82,SSW,198,0.0,3.0,98,0.07,,,0.07,weatherlink.com 1.10,2013-09-02 11:53:00,
2013-09-02 08:08:00,71.0,70.0,29.82,SSE,158,0.0,2.0,98,0.06,,,0.07,weatherlink.com 1.10,2013-09-02 12:08:00,
2013-09-02 08:23:00,71.3,71.0,29.82,SW,233,0.0,4.0,98,0.02,,,0.07,weatherlink.com 1.10,2013-09-02 12:23:00,
2013-09-02 08:38:00,71.6,71.0,29.81,SSE,158,0.0,4.0,98,0.00,,,0.07,weatherlink.com 1.10,2013-09-02 12:38:00,
2013-09-02 08:53:00,71.8,71.0,29.82,SE,141,0.0,5.0,98,0.00,,,0.07,weatherlink.com 1.10,2013-09-02 12:53:00,
2013-09-02 09:08:00,71.7,71.0,29.81,SSE,148,0.0,3.0,98,0.00,,,0.07,weatherlink.com 1.10,2013-09-02 13:08:00,
2013-09-02 09:23:00,71.9,71.0,29.82,SW,218,0.0,2.0,98,0.00,,,0.07,weatherlink.com 1.10,2013-09-02 13:23:00,
2013-09-02 09:38:00,72.2,72.0,29.81,SW,220,2.0,4.0,98,0.00,,,0.07,weatherlink.com 1.10,2013-09-02 13:38:00,
2013-09-02 09:53:00,72.2,72.0,29.81,SW,229,0.0,4.0,98,0.00,,,0.07,weatherlink.com 1.10,2013-09-02 13:53:00,
2013-09-02 10:08:00,72.4,72.0,29.81,SW,234,1.0,7.0,98,0.00,,,0.07,weatherlink.com 1.10,2013-09-02 14:08:00,
2013-09-02 10:23:00,72.5,72.0,29.81,SSE,160,0.0,3.0,98,0.00,,,0.07,weatherlink.com 1.10,2013-09-02 14:23:00,
2013-09-02 10:38:00,72.9,72.0,29.82,South,187,2.0,3.0,98,0.00,,,0.07,weatherlink.com 1.10,2013-09-02 14:38:00,
2013-09-02 10:53:00,73.3,73.0,29.81,SW,222,1.0,6.0,99,0.00,,,0.07,weatherlink.com 1.10,2013-09-02 14:53:00,
2013-09-02 11:08:00,73.3,73.0,29.81,SW,230,0.0,6.0,98,0.00,,,0.07,weatherlink.com 1.10,2013-09-02 15:08:00,
2013-09-02 11:23:00,73.5,73.0,29.81,SW,219,4.0,5.0,98,0.00,,,0.07,weatherlink.com 1.10,2013-09-02 15:23:00,
2013-09-02 11:38:00,73.5,73.0,29.80,SSE,165,0.0,9.0,98,0.00,,,0.07,weatherlink.com 1.10,2013-09-02 15:38:00,
2013-09-02 11:53:00,74.0,73.0,29.80,East,89,4.0,8.0,98,0.00,,,0.07,weatherlink.com 1.10,2013-09-02 15:53:00,
2013-09-02 12:08:00,74.8,74.0,29.79,South,185,0.0,4.0,98,0.00,,,0.07,weatherlink.com 1.10,2013-09-02 16:08:00,
2013-09-02 12:23:00,75.1,74.0,29.79,SW,222,1.0,4.0,97,0.00,,,0.07,weatherlink.com 1.10,2013-09-02 16:23:00,
2013-09-02 12:38:00,75.7,74.0,29.79,SW,230,0.0,10.0,95,0.00,,,0.07,weatherlink.com 1.10,2013-09-02 16:38:00,
2013-09-02 12:53:00,76.5,75.0,29.78,SW,229,2.0,6.0,95,0.00,,,0.07,weatherlink.com 1.10,2013-09-02 16:53:00,
2013-09-02 13:08:00,76.3,75.0,29.77,ESE,120,0.0,8.0,94,0.00,,,0.07,weatherlink.com 1.10,2013-09-02 17:08:00,
2013-09-02 13:23:00,76.0,74.0,29.77,South,174,0.0,8.0,94,0.00,,,0.07,weatherlink.com 1.10,2013-09-02 17:23:00,
2013-09-02 13:38:00,76.7,75.0,29.77,SSW,212,0.0,3.0,93,0.00,,,0.07,weatherlink.com 1.10,2013-09-02 17:38:00,
2013-09-02 13:53:00,76.4,74.0,29.77,South,189,0.0,7.0,93,0.00,,,0.07,weatherlink.com 1.10,2013-09-02 17:53:00,
2013-09-02 14:08:00,76.4,74.0,29.78,SW,231,3.0,6.0,92,0.00,,,0.07,weatherlink.com 1.10,2013-09-02 18:08:00,
2013-09-02 14:23:00,75.7,73.0,29.77,SSW,203,0.0,6.0,91,0.00,,,0.07,weatherlink.com 1.10,2013-09-02 18:23:00,
2013-09-02 14:38:00,74.9,72.0,29.77,ESE,111,0.0,8.0,91,0.00,,,0.07,weatherlink.com 1.10,2013-09-02 18:38:00,
2013-09-02 14:53:00,74.3,72.0,29.77,SSW,196,0.0,5.0,93,0.01,,,0.08,weatherlink.com 1.10,2013-09-02 18:53:00,
2013-09-02 15:08:00,73.6,72.0,29.77,NW,324,0.0,4.0,94,0.01,,,0.08,weatherlink.com 1.10,2013-09-02 19:08:00,
2013-09-02 15:23:00,73.2,72.0,29.76,NW,323,0.0,8.0,95,0.02,,,0.09,weatherlink.com 1.10,2013-09-02 19:23:00,
2013-09-02 15:38:00,73.2,72.0,29.75,SW,219,5.0,6.0,96,0.05,,,0.12,weatherlink.com 1.10,2013-09-02 19:38:00,
2013-09-02 15:53:00,72.8,72.0,29.74,SW,221,0.0,8.0,96,0.04,,,0.12,weatherlink.com 1.10,2013-09-02 19:53:00,
2013-09-02 16:08:00,73.0,72.0,29.74,SSW,211,0.0,5.0,97,0.04,,,0.12,weatherlink.com 1.10,2013-09-02 20:08:00,
2013-09-02 16:23:00,73.0,72.0,29.74,SSW,197,5.0,5.0,96,0.03,,,0.12,weatherlink.com 1.10,2013-09-02 20:23:00,
2013-09-02 16:38:00,72.8,72.0,29.74,SSE,151,1.0,6.0,96,0.00,,,0.12,weatherlink.com 1.10,2013-09-02 20:38:00,
2013-09-02 16:53:00,72.7,72.0,29.74,ESE,115,1.0,6.0,97,0.00,,,0.12,weatherlink.com 1.10,2013-09-02 20:53:00,
2013-09-02 17:08:00,72.3,71.0,29.74,SW,221,0.0,6.0,97,0.00,,,0.12,weatherlink.com 1.10,2013-09-02 21:08:00,
2013-09-02 17:23:00,72.1,71.0,29.73,SSE,158,0.0,5.0,97,0.00,,,0.12,weatherlink.com 1.10,2013-09-02 21:23:00,
2013-09-02 17:38:00,72.2,71.0,29.73,SSW,209,1.0,4.0,97,0.00,,,0.12,weatherlink.com 1.10,2013-09-02 21:38:00,
2013-09-02 17:53:00,72.3,71.0,29.72,SSW,204,0.0,3.0,97,0.00,,,0.12,weatherlink.com 1.10,2013-09-02 21:53:00,
2013-09-02 18:08:00,72.1,71.0,29.72,SW,215,0.0,5.0,97,0.00,,,0.12,weatherlink.com 1.10,2013-09-02 22:08:00,
2013-09-02 18:23:00,72.1,71.0,29.71,SW,217,0.0,3.0,97,0.00,,,0.12,weatherlink.com 1.10,2013-09-02 22:23:00,
2013-09-02 18:38:00,71.9,71.0,29.70,SSW,210,0.0,5.0,98,0.00,,,0.12,weatherlink.com 1.10,2013-09-02 22:38:00,
2013-09-02 18:53:00,71.8,71.0,29.71,SSW,208,0.0,5.0,98,0.00,,,0.12,weatherlink.com 1.10,2013-09-02 22:53:00,
2013-09-02 19:08:00,71.9,71.0,29.72,SSW,213,0.0,4.0,98,0.00,,,0.12,weatherlink.com 1.10,2013-09-02 23:08:00,
2013-09-02 19:23:00,72.0,71.0,29.72,West,276,0.0,1.0,98,0.00,,,0.12,weatherlink.com 1.10,2013-09-02 23:23:00,
2013-09-02 19:38:00,72.1,72.0,29.72,SSW,192,0.0,3.0,98,0.00,,,0.12,weatherlink.com 1.10,2013-09-02 23:38:00,
2013-09-02 19:53:00,72.1,72.0,29.72,SSW,198,0.0,4.0,98,0.00,,,0.12,weatherlink.com 1.10,2013-09-02 23:53:00,
2013-09-02 20:08:00,72.1,72.0,29.72,South,178,2.0,5.0,98,0.00,,,0.12,weatherlink.com 1.10,2013-09-03 00:08:00,
2013-09-02 20:23:00,72.0,71.0,29.72,SSW,209,0.0,3.0,98,0.00,,,0.12,weatherlink.com 1.10,2013-09-03 00:23:00,
2013-09-02 20:38:00,71.9,71.0,29.72,SSW,211,0.0,6.0,98,0.00,,,0.12,weatherlink.com 1.10,2013-09-03 00:38:00,
2013-09-02 20:53:00,71.9,71.0,29.72,SW,225,3.0,6.0,98,0.00,,,0.12,weatherlink.com 1.10,2013-09-03 00:53:00,
2013-09-02 21:08:00,71.8,71.0,29.72,SW,218,0.0,4.0,98,0.00,,,0.12,weatherlink.com 1.10,2013-09-03 01:08:00,
2013-09-02 21:23:00,71.7,71.0,29.72,SW,228,0.0,5.0,98,0.00,,,0.12,weatherlink.com 1.10,2013-09-03 01:23:00,
2013-09-02 21:38:00,71.8,71.0,29.72,SSW,194,0.0,4.0,98,0.00,,,0.12,weatherlink.com 1.10,2013-09-03 01:38:00,
2013-09-02 21:53:00,71.5,71.0,29.73,South,186,0.0,6.0,98,0.00,,,0.12,weatherlink.com 1.10,2013-09-03 01:53:00,
2013-09-02 22:09:00,71.5,71.0,29.73,SSW,192,0.0,2.0,98,0.00,,,0.12,weatherlink.com 1.10,2013-09-03 02:09:00,
2013-09-02 22:24:00,71.5,71.0,29.73,SSW,210,0.0,2.0,98,0.00,,,0.12,weatherlink.com 1.10,2013-09-03 02:24:00,
2013-09-02 22:39:00,71.5,71.0,29.73,South,180,0.0,1.0,98,0.00,,,0.12,weatherlink.com 1.10,2013-09-03 02:39:00,
2013-09-02 22:54:00,71.5,71.0,29.73,SSW,193,0.0,1.0,98,0.00,,,0.12,weatherlink.com 1.10,2013-09-03 02:54:00,
2013-09-02 23:09:00,71.7,71.0,29.73,West,270,0.0,5.0,98,0.00,,,0.12,weatherlink.com 1.10,2013-09-03 03:09:00,
2013-09-02 23:24:00,71.7,71.0,29.73,SW,229,0.0,1.0,98,0.00,,,0.12,weatherlink.com 1.10,2013-09-03 03:24:00,
2013-09-02 23:39:00,71.7,71.0,29.73,SSW,195,0.0,0.0,98,0.00,,,0.12,weatherlink.com 1.10,2013-09-03 03:39:00,
2013-09-02 23:54:00,71.7,71.0,29.73,West,264,0.0,2.0,98,0.00,,,0.12,weatherlink.com 1.10,2013-09-03 03:54:00,